Home   Weather   Paradise   Past weeks

Flag for USA Past Weather in Paradise, Nevada, USA — Yesterday and Last 2 Weeks

Now
59 °F

Passing clouds.


Feels Like: 57 °F
Forecast: 55 / 72 °F
Wind: 12 mph from South

Location: McCarran International Airport

Current Time: Feb 21, 2017 at 4:34:47 am

Latest Report: Feb 21, 2017 at 3:56 am


Visibility: 10 mi

Pressure: 30.15 "Hg (27.94 "Hg at 643m altitude)

Humidity: 60%

Dew Point: 45 °F

Location of ParadiseLocation

Past Weather in Paradise — Graph

°F

Paradise Temperature Yesterday

Maximum temperature yesterday: 66 °F (at 1:56 pm)
Minimum temperature yesterday: 54 °F (at 12:56 am)
Average temperature yesterday: 60 °F

High & Low Weather Summary for the Past Weeks

 TemperatureHumidityPressure
High76 °F (Feb 10, 11:56 am)92% (Feb 18, 8:56 pm)30.20 "Hg (Feb 18, 8:56 pm)
Low47 °F (Feb 15, 6:56 am)12% (Feb 14, 12:56 pm)29.49 "Hg (Feb 18, 1:56 pm)
Average60 °F47%29.93 "Hg
* Reported Feb 6 2:56 am — Feb 21 2:56 am, Paradise, Weather by CustomWeather, © 2017

Note: Actual official high and low records may vary slightly from our data, if they occured in-between our weather recording intervals... More about our weather records

Advertising

Paradise Weather History for the Previous 24 Hours

Scroll right to see more
 ConditionsComfort  
Time TempWeatherWind HumidityBarometerVisibility
2:56 am
Tue, Feb 21
59 °FPassing clouds.9 mph60%30.15 "Hg10 mi
1:56 am60 °FPassing clouds.8 mph53%30.16 "Hg10 mi
12:56 am61 °FPassing clouds.10 mph54%30.16 "Hg10 mi
11:56 pm
Mon, Feb 20
60 °FPassing clouds.12 mph58%30.15 "Hg10 mi
10:56 pm61 °FPassing clouds.9 mph56%30.16 "Hg10 mi
9:56 pm61 °FPassing clouds.8 mph58%30.15 "Hg10 mi
8:56 pm61 °FPassing clouds.9 mph56%30.15 "Hg10 mi
7:56 pm63 °FPassing clouds.8 mph50%30.14 "Hg10 mi
6:56 pm62 °FPassing clouds.5 mph54%30.14 "Hg10 mi
5:56 pm63 °FPartly cloudy.8 mph52%30.13 "Hg10 mi
4:56 pm65 °FBroken clouds.8 mph47%30.08 "Hg10 mi
3:56 pm64 °FScattered clouds.12 mph50%30.08 "Hg10 mi
2:56 pm66 °FScattered clouds.17 mph47%30.06 "Hg10 mi
1:56 pm66 °FBroken clouds.12 mph47%30.06 "Hg10 mi
12:56 pm64 °FPartly sunny.14 mph49%30.08 "Hg10 mi
11:56 am61 °FCloudy.14 mph56%30.11 "Hg10 mi
10:56 am62 °FMostly cloudy.13 mph52%30.14 "Hg10 mi
9:56 am60 °FPartly sunny.9 mph56%30.13 "Hg10 mi
8:56 am59 °FPartly sunny.10 mph58%30.12 "Hg10 mi
7:56 am56 °FBroken clouds.8 mph65%30.09 "Hg10 mi
6:56 am56 °FMostly cloudy.8 mph62%30.08 "Hg10 mi
5:56 am55 °FMostly cloudy.8 mph67%30.04 "Hg10 mi
4:56 am55 °FOvercast.7 mph69%30.02 "Hg10 mi
Weather by CustomWeather, © 2017

See weather overviewHow to use our weather pages